SCP
0 0 0 0 0 0 0 0 0 0 0 0 0 0 0 0 0 0 0 1 1 1 2 2 3 4 5 6 7 7 7 8 7 6 5 5 5 4 3 3 2 2 2 2
0 0 0 0 0 0 0 0 0 0 0 0 0 0 0 0 0 0 0 1 1 1 2 3 3 4 5 6 7 7 8 8 7 6 5 5 4 4 3 3 2 2 2 1
0 0 0 0 0 0 0 0 0 0 0 0 0 0 0 0 0 1 1 1 2 2 3 3 4 5 6 7 7 7 8 8 7 6 5 5 4 3 3 2 1 1 1 1
0 0 0 0 0 0 0 0 0 0 0 0 0 0 0 0 1 1 2 2 2 3 4 4 5 6 7 8 8 8 8 7 6 6 5 4 3 3 2 1 1 1 0 0
0 0 0 0 0 0 0 0 0 0 0 0 0 0 0 0 1 2 2 3 3 4 4 4 5 6 7 8 8 8 7 6 5 5 4 3 3 2 1 1 1 0 0 0
0 0 0 0 0 0 0 0 0 0 0 0 0 0 0 1 1 2 3 4 4 3 3 4 4 5 6 6 6 6 5 4 4 3 3 2 2 1 1 0 0 0 0 0
0 0 0 0 0 0 0 0 0 0 0 0 0 0 1 2 3 3 4 4 3 3 3 3 3 3 4 4 4 3 3 2 2 2 1 1 1 1 0 0 0 0 0 0
0 0 0 0 0 0 0 0 0 0 0 0 0 0 1 3 3 4 3 3 2 2 2 2 2 2 2 2 2 2 1 1 1 1 1 0 0 0 0 0 0 0 0 0
0 0 0 0 0 0 0 0 0 0 0 0 0 1 2 3 3 3 2 2 1 1 1 1 1 1 1 1 1 1 0 0 0 0 0 0 0 0 0 0 0 0 0 0
0 0 0 0 0 0 0 0 0 0 0 0 0 1 2 2 2 2 2 1 1 0 0 0 0 0 0 0 0 0 0 0 0 0 0 0 0 0 0 0 0 0 0 0
0 0 0 0 0 0 0 0 0 0 0 0 0 0 1 2 2 1 1 0 0 0 0 0 0 0 0 0 0 0 0 0 0 0 0 0 0 0 0 0 0 0 0 0
0 0 0 0 0 0 0 0 0 0 0 0 0 1 1 2 2 1 1 0 0 0 0 0 0 0 0 0 0 0 0 0 0 0 0 0 0 0 0 0 0 0 0 0
0 0 0 0 0 0 0 0 0 0 0 0 0 1 1 1 1 1 0 0 0 0 0 0 0 0 0 0 0 0 0 0 0 0 0 0 0 0 0 0 0 0 0 0
0 0 0 0 0 0 0 0 0 0 0 0 0 1 1 1 1 0 0 0 0 0 0 0 0 0 0 0 0 0 0 0 0 0 0 0 0 0 0 0 0 0 0 0
0 0 0 0 0 0 0 0 0 0 0 0 0 1 1 1 1 0 0 0 0 0 0 0 0 0 0 0 0 0 0 0 0 0 0 0 0 0 0 0 0 0 0 0
0 0 0 0 0 0 0 0 0 0 0 0 1 1 1 1 0 0 0 0 0 0 0 0 0 0 0 0 0 0 0 0 0 0 0 0 0 0 0 0 0 0 0 0
0 0 0 0 0 0 0 0 0 0 1 1 1 1 0 0 0 0 0 0 0 0 0 0 0 0 0 0 0 0 0 0 0 0 0 0 0 0 0 0 0 0 0 0
0 0 0 0 0 0 0 0 0 0 0 0 0 0 0 0 0 0 0 0 0 0 0 0 0 0 0 0 0 0 0 0 0 0 0 0 0 0 0 0 0 0 0 0
0 0 0 0 0 0 0 0 0 0 0 0 0 0 0 0 0 0 0 0 0 0 0 0 0 0 0 0 0 0 0 0 0 0 0 0 0 0 0 0 0 0 0 0
0 0 0 0 0 0 0 0 0 0 0 0 0 0 0 0 0 0 0 0 0 0 0 0 0 0 0 0 0 0 0 0 0 0 0 0 0 0 0 0 0 0 0 0
0 0 0 0 0 0 0 0 0 0 0 0 0 0 0 0 0 0 0 0 0 0 0 0 0 0 0 0 0 0 0 0 0 0 0 0 0 0 0 0 0 0 0 0
0 0 0 0 0 0 0 0 0 0 0 0 0 0 0 0 0 0 0 0 0 0 0 0 0 0 0 0 0 0 0 0 0 0 0 0 0 0 0 0 0 0 0 0
0 0 0 0 0 0 0 0 0 0 0 0 0 0 0 0 0 0 0 0 0 0 0 0 0 0 0 0 0 0 0 0 0 0 0 0 0 0 0 0 0 0 0 0
0 0 0 0 0 0 0 0 0 0 0 0 0 0 0 0 0 0 0 0 0 0 0 0 0 0 0 0 0 0 0 0 0 0 0 0 0 0 0 0 0 0 0 0
0 0 0 0 0 0 0 0 0 0 0 0 0 0 0 0 0 0 0 0 0 0 0 0 0 0 0 0 0 0 0 0 0 0 0 0 0 0 0 0 0 0 0 0
0 0 0 0 0 0 0 0 0 0 0 0 0 0 0 0 0 0 0 0 0 0 0 0 0 0 0 0 0 0 0 0 0 0 0 0 0 0 0 0 0 0 0 0
Wind_Speed
14 13 14 16 17 18 19 15 14 13 11 13 13 14 14 11 10 9 9 8 6 4 4 5 10 11 12 11 12 12 11 12 10 8 8 7 6 5 4 4 4 4 5 4
14 18 17 16 16 17 18 17 15 11 6 7 9 12 13 13 10 7 5 2 2 5 6 6 7 9 10 11 11 11 11 12 10 7 6 5 6 5 5 5 6 6 6 5
19 15 17 18 17 16 16 15 15 13 7 8 9 13 15 13 10 6 4 3 3 6 7 7 7 5 9 8 9 11 11 11 9 9 7 6 5 5 4 5 5 6 6 6
18 19 15 15 17 17 14 14 15 15 12 10 12 12 15 15 12 8 5 4 6 9 10 10 11 8 6 6 6 7 9 9 8 9 9 10 7 6 5 6 6 7 7 7
16 17 17 15 15 15 14 13 14 15 14 14 14 14 13 15 14 10 7 9 12 13 14 13 12 11 10 9 8 8 9 8 8 7 8 8 7 7 7 8 9 8 8 8
16 15 15 15 13 13 13 14 14 14 13 17 17 16 13 8 11 12 13 14 14 15 15 14 14 14 13 13 12 12 12 11 9 9 8 8 10 10 10 9 9 7 6 7
13 16 15 13 13 13 13 11 9 11 12 15 16 17 7 7 13 17 18 17 16 16 15 15 15 14 14 14 14 13 14 13 12 12 11 10 11 11 10 9 8 8 6 6
9 12 14 13 14 13 14 15 12 11 11 12 15 15 6 16 19 19 18 17 17 16 15 14 13 13 13 14 13 13 14 14 13 13 12 11 11 9 8 9 8 8 7 7
6 9 9 11 13 15 15 15 17 16 17 14 10 5 12 16 18 17 17 17 16 15 14 13 13 13 13 13 13 13 14 14 14 13 13 13 12 11 10 9 9 8 7 7
5 8 8 9 11 15 16 13 9 12 13 14 11 6 8 16 15 15 15 16 15 14 13 12 11 12 11 12 12 13 14 14 13 12 11 11 12 11 10 10 10 9 8 7
7 6 8 8 10 13 13 15 12 11 12 13 10 1 3 13 15 15 15 15 14 13 12 11 10 10 11 12 12 13 13 14 13 13 12 12 11 11 11 10 10 8 7 6
7 6 6 10 10 11 11 13 12 10 11 12 9 2 8 14 16 16 16 15 14 13 12 11 11 11 11 12 11 12 12 12 12 12 12 11 11 10 10 10 8 7 6 6
9 6 7 7 7 5 8 9 10 10 9 9 9 4 11 15 16 15 15 14 13 13 12 11 11 11 11 11 11 11 11 11 11 12 11 10 10 10 9 8 7 7 6 6
5 7 6 5 5 8 11 11 9 9 9 8 5 7 10 14 14 14 14 14 13 12 12 11 10 10 10 10 10 10 10 10 11 11 11 10 9 9 8 8 7 6 5 5
6 8 5 3 5 4 8 11 8 8 8 4 2 6 6 10 13 14 14 14 14 13 12 11 11 9 9 10 10 10 10 10 10 10 10 9 8 8 7 7 6 6 5 5
7 8 10 6 6 5 3 6 8 7 8 6 9 9 11 13 13 13 13 13 13 12 12 11 11 10 9 9 10 10 9 9 8 9 9 8 7 7 6 6 6 5 5 5
8 9 10 9 7 6 4 8 8 12 13 11 10 9 12 13 12 11 12 13 13 13 12 11 10 9 9 9 8 8 8 7 8 8 8 7 6 6 6 6 6 5 5 4
6 8 6 7 6 3 6 10 11 13 16 15 15 14 14 14 13 12 11 12 13 12 11 10 8 8 8 7 7 6 6 7 7 7 6 6 6 6 5 5 4 4 3 3
2 5 6 5 4 3 7 11 11 7 11 11 13 14 16 16 15 11 10 11 11 11 9 8 7 7 7 6 6 5 6 6 6 6 5 5 5 5 4 4 3 3 3 3
2 3 5 6 6 4 6 8 7 1 7 8 9 10 10 7 6 5 8 10 11 10 8 7 6 7 7 5 4 5 5 5 5 5 5 5 5 4 3 3 3 3 2 3
6 5 5 6 3 6 9 11 7 3 4 5 7 8 7 6 8 10 10 10 10 9 8 7 7 6 5 5 4 5 5 5 5 4 4 4 2 1 3 2 2 2 2 2
7 7 7 6 4 5 11 9 8 6 6 7 8 10 13 15 15 13 11 10 10 9 8 7 6 6 5 4 5 6 5 4 4 3 3 2 1 2 3 2 2 2 2 3
5 6 5 6 5 6 9 9 7 6 7 8 9 11 14 15 14 13 11 10 9 9 7 6 7 6 5 4 4 5 4 3 3 2 2 1 1 1 2 2 2 2 2 3
4 4 2 4 7 7 8 9 8 8 8 9 10 11 13 14 13 12 10 9 8 8 7 6 7 7 6 5 5 4 4 3 2 1 0 0 0 0 1 1 2 3 5 5
5 4 2 4 6 7 8 8 9 9 9 10 11 11 12 14 13 11 10 9 7 7 6 6 6 6 6 5 4 4 3 1 1 1 2 1 0 0 1 2 4 4 6 5
5 5 4 4 4 6 8 8 8 9 9 10 11 12 12 12 12 11 9 7 7 7 7 6 6 6 5 5 4 3 2 1 2 2 3 2 1 1 1 3 4 6 5 5
Wind_Direction
210 223 228 228 227 247 266 274 257 242 213 194 217 230 241 235 207 209 216 220 203 192 170 134 131 134 146 155 158 161 163 155 156 162 167 169 160 144 129 114 109 103 107 111
219 225 236 244 241 242 258 271 273 262 206 190 227 243 247 248 224 208 218 193 97 65 48 77 102 128 145 157 158 157 162 159 163 161 157 151 138 126 109 90 80 80 85 86
230 230 225 243 253 246 248 258 267 268 237 206 234 247 248 246 238 210 193 143 86 79 65 60 68 89 132 143 157 166 163 159 161 147 138 130 117 112 105 103 87 75 81 79
236 242 235 229 239 247 248 250 262 272 267 246 224 241 231 226 222 206 171 117 78 60 60 59 55 46 70 116 141 139 142 144 146 143 149 150 146 135 121 109 99 84 74 76
237 235 237 237 238 241 250 256 256 258 263 266 255 251 247 218 199 186 144 100 76 59 54 52 49 48 49 58 86 91 102 107 112 118 131 132 125 115 109 106 101 90 81 80
250 242 236 238 240 244 245 250 256 252 250 247 247 255 253 243 185 148 113 90 77 68 59 54 49 48 51 55 64 72 80 80 87 92 101 108 113 112 114 111 106 97 90 83
243 245 235 233 235 232 231 232 235 230 230 241 234 238 236 80 95 106 100 88 79 73 66 58 52 50 52 56 63 70 75 73 74 79 80 88 98 103 105 105 102 100 94 86
243 243 227 220 228 231 219 228 236 240 238 245 233 225 148 104 99 99 97 92 82 74 68 63 58 57 59 61 65 71 75 75 74 76 77 78 83 85 87 89 95 94 93 92
294 266 236 224 221 236 228 223 242 263 277 280 261 145 114 114 110 107 102 94 86 79 73 68 63 61 62 64 66 73 78 78 76 78 78 78 81 86 91 92 93 94 96 99
293 292 262 232 221 226 247 237 234 247 262 272 269 183 165 147 131 119 110 101 94 88 82 76 72 71 70 71 71 72 75 78 77 78 80 85 83 84 86 86 84 85 86 86
304 283 281 252 221 227 224 241 242 248 253 261 265 346 95 146 135 126 115 108 103 97 90 85 81 79 79 78 76 76 77 78 78 79 80 82 83 84 85 84 83 84 86 87
331 302 288 283 270 263 244 235 238 247 255 266 274 85 85 111 118 116 112 109 104 100 95 90 87 83 81 80 80 81 82 83 84 84 84 83 85 85 86 88 89 88 85 83
339 318 304 295 279 290 281 266 256 252 257 261 265 120 97 103 110 115 116 113 108 103 98 92 87 84 84 83 82 82 84 86 88 88 86 84 84 84 84 84 83 82 79 74
297 298 306 297 294 308 307 310 304 273 254 260 271 130 124 120 122 121 119 115 110 105 101 96 91 86 84 82 81 82 83 85 87 86 84 81 79 80 80 80 76 74 76 73
328 303 315 257 256 260 304 317 312 294 286 286 63 99 114 121 122 121 117 115 111 106 101 97 94 90 87 85 82 81 81 81 84 86 86 85 85 83 80 75 68 60 52 56
333 312 312 283 243 236 262 332 326 340 12 49 76 77 88 98 100 109 113 112 107 102 99 95 91 87 84 83 84 81 79 78 82 87 87 85 84 83 83 80 70 60 50 41
325 326 314 305 306 292 49 27 31 49 44 46 57 78 92 91 94 102 107 107 105 101 93 87 81 76 75 75 78 81 82 83 84 85 87 86 83 77 70 69 64 56 45 35
318 322 303 301 321 354 50 27 43 63 55 65 87 91 89 90 85 81 94 104 103 101 99 95 90 86 82 82 81 83 89 92 92 89 88 87 85 79 70 63 57 50 41 25
329 317 313 312 310 90 40 9 3 40 66 62 93 105 109 108 90 72 79 95 103 104 103 103 102 100 98 95 94 94 93 95 93 88 84 80 78 74 64 54 46 43 23 12
303 284 290 311 329 36 27 345 326 29 77 54 92 114 129 132 101 103 106 105 105 106 107 109 107 104 102 105 110 107 100 96 91 86 79 71 64 58 54 45 35 30 7 6
343 326 327 332 10 73 1 344 342 26 58 59 84 101 103 87 105 124 122 114 114 115 116 114 109 105 111 119 118 108 101 93 91 92 88 80 66 47 69 48 27 7 357 359
348 354 3 1 20 39 5 23 46 69 82 84 89 96 101 106 113 120 121 121 120 119 119 118 116 114 118 124 118 108 99 100 104 97 89 80 41 9 53 27 8 347 341 342
27 29 8 36 66 77 55 66 73 81 89 95 101 108 116 119 123 124 124 125 127 128 129 133 129 124 120 117 112 111 115 118 106 85 72 62 48 32 25 355 357 3 11 4
67 60 57 91 104 98 85 82 75 76 88 100 111 119 122 124 126 126 127 128 130 134 138 141 135 126 120 117 108 102 97 85 78 62 340 247 159 311 80 18 18 34 26 14
354 355 22 88 119 111 92 83 82 82 90 101 108 116 123 125 127 128 129 133 137 142 140 135 125 121 120 115 112 109 99 78 36 350 326 324 352 302 140 97 53 49 67 52
36 30 28 69 76 99 100 91 94 98 99 107 114 116 122 127 131 131 132 136 137 131 126 122 120 118 120 120 111 99 85 43 359 343 333 328 338 13 45 115 120 73 96 118